Time,TemperatureF,DewpointF,PressureIn,WindDirection,WindDirectionDegrees,WindSpeedMPH,WindSpeedGustMPH,Humidity,HourlyPrecipIn,Conditions,Clouds,dailyrainin,SoftwareType,DateUTC
2013-02-17 09:52:00,8.0,-2.0,30.05,North,356,2.0,7.0,64,0.00,,,0.00,,2013-02-17 15:52:00,
2013-02-17 10:01:00,8.0,-2.0,30.05,North,356,2.0,7.0,64,0.00,,,0.00,,2013-02-17 16:01:00,
2013-02-17 10:11:00,8.0,-2.0,30.05,North,356,2.0,7.0,64,0.00,,,0.00,,2013-02-17 16:11:00,
2013-02-17 10:21:00,10.0,0.0,30.05,NNW,343,1.0,2.0,62,0.00,,,0.00,,2013-02-17 16:21:00,
2013-02-17 10:32:00,10.0,0.0,30.05,NNW,343,1.0,2.0,62,0.00,,,0.00,,2013-02-17 16:32:00,
2013-02-17 10:42:00,10.0,0.0,30.05,NNW,343,1.0,2.0,62,0.00,,,0.00,,2013-02-17 16:42:00,
2013-02-17 10:51:00,13.0,0.0,30.04,NNW,343,2.0,6.0,55,0.00,,,0.00,,2013-02-17 16:51:00,
2013-02-17 11:02:00,13.0,0.0,30.04,NNW,342,2.0,3.0,54,0.00,,,0.00,,2013-02-17 17:02:00,
2013-02-17 11:11:00,13.0,0.0,30.04,NNW,342,2.0,3.0,54,0.00,,,0.00,,2013-02-17 17:11:00,
2013-02-17 11:21:00,14.0,-1.0,30.04,NW,313,3.0,7.0,51,0.00,,,0.00,,2013-02-17 17:21:00,
2013-02-17 11:32:00,16.0,0.0,30.03,NW,314,2.0,5.0,49,0.00,,,0.00,,2013-02-17 17:32:00,
2013-02-17 11:41:00,16.0,0.0,30.03,NW,314,2.0,5.0,49,0.00,,,0.00,,2013-02-17 17:41:00,
2013-02-17 11:52:00,16.0,0.0,30.03,NNW,328,2.0,7.0,49,0.00,,,0.00,,2013-02-17 17:52:00,
2013-02-17 12:01:00,17.0,1.0,30.03,NW,322,4.0,10.0,49,0.00,,,0.00,,2013-02-17 18:01:00,
2013-02-17 12:11:00,17.0,1.0,30.03,NW,322,4.0,10.0,49,0.00,,,0.00,,2013-02-17 18:11:00,
2013-02-17 12:22:00,17.0,0.0,30.02,NNW,332,4.0,7.0,47,0.00,,,0.00,,2013-02-17 18:22:00,
2013-02-17 12:33:00,17.0,0.0,30.02,NNW,332,4.0,7.0,47,0.00,,,0.00,,2013-02-17 18:33:00,
2013-02-17 12:42:00,17.0,0.0,30.02,NNW,332,4.0,7.0,47,0.00,,,0.00,,2013-02-17 18:42:00,
2013-02-17 12:52:00,18.0,-1.0,30.01,WNW,303,3.0,8.0,43,0.00,,,0.00,,2013-02-17 18:52:00,
2013-02-17 13:01:00,19.0,0.0,30.00,West,276,3.0,8.0,43,0.00,,,0.00,,2013-02-17 19:01:00,
2013-02-17 13:11:00,19.0,0.0,30.00,West,276,3.0,8.0,43,0.00,,,0.00,,2013-02-17 19:11:00,
2013-02-17 13:21:00,19.0,0.0,30.00,West,280,5.0,7.0,42,0.00,,,0.00,,2013-02-17 19:21:00,
2013-02-17 13:32:00,20.0,0.0,29.99,West,270,3.0,7.0,41,0.00,,,0.00,,2013-02-17 19:32:00,
2013-02-17 13:42:00,20.0,0.0,29.99,West,270,3.0,7.0,41,0.00,,,0.00,,2013-02-17 19:42:00,
2013-02-17 13:51:00,20.0,0.0,29.99,WNW,294,3.0,6.0,40,0.00,,,0.00,,2013-02-17 19:51:00,
2013-02-17 14:02:00,21.0,0.0,29.99,West,276,3.0,8.0,39,0.00,,,0.00,,2013-02-17 20:02:00,
2013-02-17 14:11:00,21.0,0.0,29.99,West,276,3.0,8.0,39,0.00,,,0.00,,2013-02-17 20:11:00,
2013-02-17 14:21:00,20.0,-1.0,29.98,SSW,204,4.0,11.0,39,0.00,,,0.00,,2013-02-17 20:21:00,
2013-02-17 14:32:00,20.0,-1.0,29.98,SSW,204,4.0,11.0,39,0.00,,,0.00,,2013-02-17 20:32:00,
2013-02-17 14:42:00,20.0,-1.0,29.98,SSW,204,4.0,11.0,39,0.00,,,0.00,,2013-02-17 20:42:00,
2013-02-17 14:52:00,21.0,1.0,29.98,SW,235,4.0,8.0,40,0.00,,,0.00,,2013-02-17 20:52:00,
2013-02-17 15:01:00,21.0,1.0,29.97,WSW,247,3.0,8.0,40,0.00,,,0.00,,2013-02-17 21:01:00,
2013-02-17 15:11:00,21.0,1.0,29.97,WSW,247,3.0,8.0,40,0.00,,,0.00,,2013-02-17 21:11:00,
2013-02-17 15:21:00,20.0,0.0,29.96,SSW,198,4.0,11.0,41,0.00,,,0.00,,2013-02-17 21:21:00,
2013-02-17 15:32:00,20.0,0.0,29.96,SSW,198,4.0,11.0,41,0.00,,,0.00,,2013-02-17 21:32:00,
2013-02-17 15:41:00,20.0,0.0,29.96,SSW,198,4.0,11.0,41,0.00,,,0.00,,2013-02-17 21:41:00,
2013-02-17 15:53:00,21.0,2.0,29.95,WSW,247,3.0,8.0,43,0.00,,,0.00,,2013-02-17 21:53:00,
2013-02-17 16:01:00,20.0,2.0,29.95,SSW,213,4.0,9.0,44,0.00,,,0.00,,2013-02-17 22:01:00,
2013-02-17 16:12:00,20.0,2.0,29.95,SSW,213,4.0,9.0,44,0.00,,,0.00,,2013-02-17 22:12:00,
2013-02-17 16:21:00,20.0,2.0,29.96,SW,221,2.0,8.0,45,0.00,,,0.00,,2013-02-17 22:21:00,
2013-02-17 16:32:00,20.0,2.0,29.95,SW,214,3.0,10.0,45,0.00,,,0.00,,2013-02-17 22:32:00,
2013-02-17 16:42:00,20.0,2.0,29.95,SW,214,3.0,10.0,45,0.00,,,0.00,,2013-02-17 22:42:00,
2013-02-17 16:52:00,18.0,2.0,29.94,SW,222,3.0,8.0,48,0.00,,,0.00,,2013-02-17 22:52:00,
2013-02-17 17:02:00,18.0,3.0,29.94,SSW,203,2.0,6.0,50,0.00,,,0.00,,2013-02-17 23:02:00,
2013-02-17 17:11:00,18.0,3.0,29.94,SSW,203,2.0,6.0,50,0.00,,,0.00,,2013-02-17 23:11:00,
2013-02-17 17:21:00,18.0,3.0,29.93,SSW,211,1.0,5.0,51,0.00,,,0.00,,2013-02-17 23:21:00,
2013-02-17 17:32:00,17.0,2.0,29.93,SW,217,1.0,3.0,52,0.00,,,0.00,,2013-02-17 23:32:00,
2013-02-17 17:42:00,17.0,2.0,29.93,SW,217,1.0,3.0,52,0.00,,,0.00,,2013-02-17 23:42:00,
2013-02-17 17:52:00,17.0,2.0,29.93,SW,217,1.0,3.0,52,0.00,,,0.00,,2013-02-17 23:52:00,
2013-02-17 18:01:00,16.0,3.0,29.93,North,0,0.0,0.0,56,0.00,,,0.00,,2013-02-18 00:01:00,
2013-02-17 18:11:00,16.0,3.0,29.93,North,0,0.0,0.0,56,0.00,,,0.00,,2013-02-18 00:11:00,
2013-02-17 18:22:00,15.0,3.0,29.93,North,0,0.0,0.0,59,0.00,,,0.00,,2013-02-18 00:22:00,
2013-02-17 18:32:00,15.0,4.0,29.93,North,0,0.0,0.0,61,0.00,,,0.00,,2013-02-18 00:32:00,
2013-02-17 18:41:00,15.0,4.0,29.93,North,0,0.0,0.0,61,0.00,,,0.00,,2013-02-18 00:41:00,
2013-02-17 18:52:00,14.0,4.0,29.92,North,0,0.0,0.0,63,0.00,,,0.00,,2013-02-18 00:52:00,
2013-02-17 19:01:00,14.0,4.0,29.91,North,0,0.0,0.0,63,0.00,,,0.00,,2013-02-18 01:01:00,
2013-02-17 19:11:00,14.0,4.0,29.91,North,0,0.0,0.0,63,0.00,,,0.00,,2013-02-18 01:11:00,
2013-02-17 19:21:00,14.0,3.0,29.91,North,0,0.0,0.0,62,0.00,,,0.00,,2013-02-18 01:21:00,
2013-02-17 19:31:00,14.0,3.0,29.91,North,0,0.0,0.0,62,0.00,,,0.00,,2013-02-18 01:31:00,
2013-02-17 19:41:00,14.0,3.0,29.91,North,0,0.0,0.0,62,0.00,,,0.00,,2013-02-18 01:41:00,
2013-02-17 19:51:00,14.0,3.0,29.91,North,0,0.0,0.0,62,0.00,,,0.00,,2013-02-18 01:51:00,
2013-02-17 20:01:00,14.0,3.0,29.91,North,0,0.0,0.0,61,0.00,,,0.00,,2013-02-18 02:01:00,
2013-02-17 20:11:00,14.0,3.0,29.91,North,0,0.0,0.0,61,0.00,,,0.00,,2013-02-18 02:11:00,
2013-02-17 20:21:00,14.0,3.0,29.90,North,0,0.0,0.0,62,0.00,,,0.00,,2013-02-18 02:21:00,
2013-02-17 20:32:00,14.0,4.0,29.90,North,0,0.0,0.0,63,0.00,,,0.00,,2013-02-18 02:32:00,
2013-02-17 20:41:00,14.0,4.0,29.90,North,0,0.0,0.0,63,0.00,,,0.00,,2013-02-18 02:41:00,
2013-02-17 20:52:00,14.0,4.0,29.90,North,0,0.0,0.0,63,0.00,,,0.00,,2013-02-18 02:52:00,
2013-02-17 21:01:00,14.0,4.0,29.90,North,0,0.0,0.0,63,0.00,,,0.00,,2013-02-18 03:01:00,
2013-02-17 21:11:00,14.0,4.0,29.90,North,0,0.0,0.0,63,0.00,,,0.00,,2013-02-18 03:11:00,